RH
80 71 70 71 64 58 61 56 74 74 78 79 78 78 81 76 73 79 78 78 81 76
81 79 70 76 74 67 69 66 70 72 79 77 78 80 83 77 79 80 82 79 80 80
77 80 75 73 76 71 73 70 76 76 77 77 78 79 83 80 80 83 79 76 79 80
75 76 77 70 71 74 74 76 77 78 76 76 77 78 83 82 79 81 82 76 78 77
76 76 76 74 72 73 75 78 77 77 78 77 77 79 82 79 70 78 81 81 82 80
75 75 77 78 73 73 76 78 74 78 80 79 76 78 81 80 77 75 76 77 81 80
75 75 73 75 78 75 78 80 78 79 80 78 76 76 76 77 78 77 72 75 76 76
73 74 76 76 78 76 78 80 80 80 78 76 70 66 77 76 76 79 76 75 74 74
71 76 77 78 77 80 80 83 82 80 78 77 60 70 77 77 76 76 78 78 78 77
71 77 78 77 79 82 85 82 83 80 77 77 76 76 81 81 73 76 75 79 79 75
71 76 79 80 82 83 83 83 81 79 78 76 75 87 87 85 75 82 82 79 79 83
69 78 81 84 84 84 88 82 80 77 79 80 78 94 90 87 84 86 83 81 82 83
74 79 83 84 84 85 86 83 76 76 80 85 86 93 90 91 94 90 88 88 88 96
76 80 81 84 85 89 88 88 87 85 84 84 85 86 94 93 90 92 95 94 94 85
Wind_Speed
16 9 9 8 7 7 5 8 13 9 8 8 7 6 7 8 7 7 5 5 4 3
16 15 12 9 9 5 7 5 13 11 11 10 10 7 6 4 6 4 5 5 5 3
17 16 13 11 10 10 6 8 12 12 12 11 9 7 7 5 4 6 5 4 5 6
17 17 16 13 13 13 10 8 13 13 12 12 10 10 9 6 7 7 6 4 3 3
17 17 17 16 14 13 13 10 12 12 13 13 11 11 11 10 7 9 9 8 6 5
18 18 18 18 17 14 14 12 13 13 14 14 13 12 12 11 9 9 7 7 6 6
19 19 18 16 16 15 16 15 15 14 13 14 14 13 13 13 11 8 8 8 8 8
18 18 16 15 15 15 15 14 13 12 13 14 12 10 14 14 12 9 9 8 8 7
17 17 16 15 15 15 14 13 13 14 13 13 9 13 15 12 10 11 9 9 7 6
17 18 17 16 15 15 14 13 12 12 11 12 11 11 15 15 9 9 10 10 8 7
17 17 17 15 14 13 11 13 11 11 11 11 10 12 11 15 11 6 8 9 10 8
16 16 16 15 14 11 10 10 10 10 11 11 8 9 10 11 7 7 9 8 7 7
14 14 13 12 9 8 8 8 7 9 8 9 7 11 13 11 6 9 8 7 8 10
13 12 11 10 7 6 5 6 6 7 5 6 7 8 11 14 8 8 5 6 6 6
Wind_Direction
216 214 213 197 234 194 207 182 164 170 159 155 173 174 177 166 179 166 172 215 234 322
203 210 208 204 208 216 211 141 161 163 161 180 180 186 154 223 204 134 162 182 195 220
202 200 207 203 207 204 217 159 163 167 171 183 184 177 176 202 213 167 181 187 212 191
202 199 200 204 201 191 203 175 169 173 177 186 187 181 185 204 201 186 181 197 201 146
198 198 197 206 202 194 194 174 169 177 181 188 186 188 186 202 216 192 184 187 180 192
200 198 200 201 206 196 193 182 182 184 188 188 188 188 190 200 210 205 194 193 185 203
199 201 203 201 198 202 194 191 193 191 191 193 190 189 192 198 210 199 200 191 204 202
200 200 201 200 197 201 197 196 192 191 197 196 193 192 193 201 202 201 209 200 204 219
194 194 199 197 197 195 199 188 192 198 198 194 197 192 197 195 202 208 198 218 209 212
186 190 193 191 194 192 191 188 192 197 193 192 200 201 194 194 200 200 208 208 209 209
184 185 184 185 188 190 190 190 187 190 190 193 200 177 193 200 207 215 220 212 210 200
179 175 176 179 188 188 178 186 185 183 188 197 211 183 190 186 204 217 238 230 221 198
161 166 169 177 177 184 175 171 177 182 191 190 203 177 190 185 190 224 229 218 225 219
156 159 157 149 145 141 153 153 172 175 187 177 194 214 194 195 214 225 228 227 231 220